| time (UTC) | temp C | wind direction | speed KPH | gust KPH | rain 1hr cm | rain 24hr cm | rain mn cm | humidity % | barometer mb |
| 20260503054528 | 8 | 314 | 1.6 | 6.4 | 0.00 | 0.00 | 0.00 | 67 | 1010.3 |
| 20260503053026 | 8 | 328 | 0.0 | 3.2 | 0.00 | 0.00 | 0.00 | 74 | 1010.5 |
| 20260503051507 | 8 | 326 | 0.0 | 4.8 | 0.00 | 0.00 | 0.00 | 83 | 1010.5 |
| 20260503050007 | 8 | 308 | 1.6 | 6.4 | 0.00 | 0.00 | 0.00 | 88 | 1010.5 |
| 20260503044548 | 8 | 294 | 0.0 | 3.2 | 0.00 | 0.00 | 0.00 | 91 | 1010.9 |
| 20260503043054 | 8 | 162 | 0.0 | 0.0 | 0.00 | 0.00 | 0.00 | 93 | 1011.1 |
| 20260503041529 | 8 | 160 | 0.0 | 0.0 | 0.00 | 0.00 | 0.00 | 95 | 1011.0 |
| 20260503040032 | 8 | 160 | 0.0 | 0.0 | 0.00 | 0.00 | 0.00 | 95 | 1011.4 |
| 20260503034515 | 8 | 160 | 0.0 | 0.0 | 0.00 | 0.00 | 0.00 | 94 | 1011.4 |
| 20260503033015 | 8 | 160 | 0.0 | 0.0 | 0.00 | 0.00 | 0.00 | 94 | 1011.6 |
| 20260503031513 | 8 | 160 | 0.0 | 0.0 | 0.00 | 0.00 | 0.00 | 94 | 1011.4 |
| 20260503030012 | 8 | 160 | 0.0 | 0.0 | 0.00 | 0.00 | 0.00 | 93 | 1011.3 |
| 20260503024512 | 8 | 160 | 0.0 | 0.0 | 0.00 | 0.00 | 0.00 | 93 | 1011.4 |
| 20260503023033 | 8 | 160 | 0.0 | 0.0 | 0.00 | 0.00 | 0.00 | 93 | 1011.6 |
| 20260503021512 | 9 | 160 | 0.0 | 0.0 | 0.00 | 0.00 | 0.00 | 93 | 1011.7 |
| 20260503020011 | 9 | 160 | 0.0 | 0.0 | 0.00 | 0.00 | 0.00 | 93 | 1011.7 |
| 20260503014553 | 9 | 160 | 0.0 | 0.0 | 0.00 | 0.00 | 0.00 | 93 | 1011.9 |
| 20260503013103 | 9 | 160 | 0.0 | 1.6 | 0.00 | 0.00 | 0.00 | 93 | 1011.9 |
| 20260503011554 | 9 | 166 | 0.0 | 0.0 | 0.00 | 0.00 | 0.00 | 93 | 1011.9 |
| 20260503010051 | 9 | 147 | 0.0 | 0.0 | 0.00 | 0.00 | 0.00 | 92 | 1011.9 |
| 20260503004541 | 9 | 147 | 0.0 | 0.0 | 0.00 | 0.00 | 0.00 | 92 | 1011.8 |
| 20260503003056 | 9 | 138 | 0.0 | 3.2 | 0.00 | 0.00 | 0.00 | 92 | 1011.7 |
| 20260503001540 | 9 | 152 | 0.0 | 0.0 | 0.00 | 0.00 | 0.00 | 91 | 1011.7 |
| 20260503000057 | 10 | 186 | 0.0 | 0.0 | 0.00 | 0.00 | 0.00 | 90 | 1011.6 |
| 20260502234543 | 10 | 186 | 0.0 | 0.0 | 0.00 | 0.00 | 0.00 | 90 | 1011.8 |
| 20260502233039 | 10 | 186 | 0.0 | 0.0 | 0.00 | 0.00 | 0.00 | 90 | 1011.8 |
| 20260502231527 | 10 | 200 | 0.0 | 3.2 | 0.00 | 0.00 | 0.00 | 90 | 1011.7 |
| 20260502230027 | 10 | 163 | 0.0 | 1.6 | 0.00 | 0.00 | 0.00 | 89 | 1011.9 |
| 20260502224526 | 10 | 200 | 0.0 | 1.6 | 0.00 | 0.00 | 0.00 | 90 | 1011.9 |
| 20260502223027 | 10 | 119 | 0.0 | 1.6 | 0.00 | 0.00 | 0.00 | 90 | 1011.9 |
| 20260502221524 | 10 | 91 | 0.0 | 4.8 | 0.00 | 0.00 | 0.00 | 90 | 1011.8 |
| 20260502220025 | 10 | 88 | 0.0 | 3.2 | 0.00 | 0.00 | 0.00 | 89 | 1011.8 |
| 20260502214522 | 10 | 217 | 0.0 | 1.6 | 0.00 | 0.00 | 0.00 | 89 | 1011.6 |
| 20260502213028 | 10 | 114 | 3.2 | 8.0 | 0.00 | 0.00 | 0.00 | 88 | 1011.4 |
| 20260502211509 | 10 | 84 | 0.0 | 4.8 | 0.00 | 0.00 | 0.00 | 88 | 1011.6 |
| 20260502210007 | 10 | 148 | 0.0 | 3.2 | 0.00 | 0.00 | 0.00 | 87 | 1011.8 |
| 20260502204515 | 10 | 186 | 0.0 | 3.2 | 0.00 | 0.00 | 0.00 | 87 | 1011.9 |
| 20260502203013 | 10 | 160 | 1.6 | 8.0 | 0.00 | 0.00 | 0.00 | 87 | 1011.8 |
| 20260502201504 | 10 | 175 | 0.0 | 6.4 | 0.00 | 0.00 | 0.00 | 87 | 1011.9 |
| 20260502200003 | 10 | 207 | 1.6 | 11.3 | 0.00 | 0.00 | 0.00 | 87 | 1012.1 |
| 20260502194501 | 10 | 205 | 0.0 | 6.4 | 0.00 | 0.00 | 0.00 | 87 | 1012.4 |
| 20260502193100 | 10 | 191 | 1.6 | 8.0 | 0.00 | 0.00 | 0.00 | 87 | 1012.3 |
| 20260502191542 | 10 | 84 | 1.6 | 6.4 | 0.00 | 0.00 | 0.00 | 85 | 1012.6 |
| 20260502190039 | 11 | 147 | 0.0 | 6.4 | 0.00 | 0.00 | 0.00 | 83 | 1012.7 |
| 20260502184528 | 11 | 190 | 1.6 | 12.9 | 0.00 | 0.00 | 0.00 | 79 | 1012.7 |
| 20260502183021 | 11 | 108 | 3.2 | 8.0 | 0.00 | 0.00 | 0.00 | 76 | 1012.8 |
| 20260502181501 | 11 | 133 | 4.8 | 17.7 | 0.00 | 0.00 | 0.00 | 77 | 1013.0 |
| 20260502163030 | 11 | 134 | 3.2 | 12.9 | 0.00 | 0.00 | 0.00 | 79 | 1013.0 |
| 20260502161528 | 11 | 186 | 3.2 | 9.7 | 0.00 | 0.00 | 0.00 | 79 | 1013.1 |
| 20260502151536 | 13 | 153 | 0.0 | 9.7 | 0.00 | 0.00 | 0.00 | 75 | 1013.8 |
| 20260502123027 | 10 | 169 | 1.6 | 9.7 | 0.00 | 0.00 | 0.00 | 83 | 1014.3 |
| 20260502121521 | 10 | 148 | 0.0 | 8.0 | 0.00 | 0.00 | 0.00 | 82 | 1014.0 |
| 20260502114503 | 10 | 195 | 0.0 | 6.4 | 0.00 | 0.00 | 0.00 | 83 | 1013.9 |
| 20260502113001 | 10 | 185 | 1.6 | 6.4 | 0.00 | 0.00 | 0.00 | 83 | 1013.6 |
| 20260502111602 | 9 | 200 | 0.0 | 3.2 | 0.00 | 0.00 | 0.00 | 83 | 1013.6 |
| 20260502110058 | 9 | 111 | 0.0 | 4.8 | 0.00 | 0.00 | 0.00 | 83 | 1013.6 |
| 20260502104556 | 8 | 127 | 0.0 | 1.6 | 0.00 | 0.00 | 0.00 | 83 | 1013.6 |
| 20260502103054 | 8 | 126 | 0.0 | 3.2 | 0.00 | 0.00 | 0.00 | 82 | 1013.2 |
| 20260502101553 | 8 | 139 | 0.0 | 1.6 | 0.00 | 0.00 | 0.00 | 81 | 1013.1 |
| 20260502091516 | 8 | 152 | 0.0 | 6.4 | 0.00 | 0.00 | 0.00 | 80 | 1013.2 |
| 20260502071501 | 8 | 84 | 0.0 | 3.2 | 0.00 | 0.00 | 0.00 | 80 | 1013.0 |
| 20260502070043 | 8 | 246 | 0.0 | 0.0 | 0.00 | 0.00 | 0.00 | 80 | 1013.0 |
| 20260502064541 | 8 | 122 | 0.0 | 0.0 | 0.00 | 0.00 | 0.00 | 79 | 1013.1 |
| 20260502063024 | 8 | 122 | 0.0 | 0.0 | 0.00 | 0.00 | 0.00 | 79 | 1013.3 |
| 20260502061522 | 8 | 122 | 0.0 | 0.0 | 0.00 | 0.00 | 0.00 | 79 | 1013.2 |
| 20260502060003 | 8 | 122 | 0.0 | 1.6 | 0.00 | 0.00 | 0.00 | 80 | 1013.3 |